Location: Brusselsch Zeekanaal
(50.8667°N, 4.3667°E)
Time: 08:57:27
(UTC+00:00)

Tiangong - Visible Passes

Search period start: 20 January 2026 00:00
Search period end: 30 January 2026 00:00
Orbit: 378 x 393 km, 41.5° (Epoch: 19 January)

Date Brightness Start Highest point End Pass type
(mag) Time Alt. Az. Time Alt. Az. Time Alt. Az.
20 Jan 0.6 06:26:18 10° SSW 06:28:08 14° S 06:29:59 10° SE visible
21 Jan 0.6 05:27:45 10° S 05:29:01 12° SSE 05:30:26 10° SE visible
22 Jan 0.4 06:03:56 10° SW 06:05:56 16° S 06:07:56 10° SE visible
23 Jan 0.5 05:06:56 14° SSE 05:06:56 14° SSE 05:08:33 10° SE visible
23 Jan 0.5 06:41:04 10° SW 06:42:50 14° S 06:44:35 10° SSE visible
24 Jan 0.2 05:42:30 13° SSW 05:43:35 15° S 05:45:33 10° SE visible
25 Jan 0.9 04:45:48 12° SSE 04:45:48 12° SSE 04:46:16 10° SE visible
25 Jan 0.5 06:19:11 10° SW 06:20:22 12° SSW 06:21:33 10° S visible
26 Jan 0.4 05:21:16 14° S 05:21:16 14° S 05:22:47 10° SSE visible
